Meteo Giornale » Osservazioni meteo Svezia » Stockholm-Arlanda

ore: 16:50 - Osservazioni Meteo Stockholm-Arlanda
Lat. 59° 39' N Lon. 17° 57' E Alt. 38 metri s.l.m.

foschia Europe/Stockholm

0 °C

Foschia

Temp. 24 Ore

-3 °C

1 °C

Ovest/Sud-Ovest

24 Km/h

Dew point 0 °C

Umidità 100 %

Visibilità  3 Km

Il sole sorge alle ore 08:17

Il sole tramonta alle ore 15:42

Data e Ora Cielo e Fenomeni T °C DP °C Um. % Pres. hPa Vis. km Vento km/h
Oggi h: 16:50 foschia Foschia 0 0 100 1019 3 O/SO 24
Oggi h: 16:20 foschia Foschia 0 0 100 1020 2 O/SO 25.9
Oggi h: 15:50 foschia Foschia 0 0 100 1020 4 O/SO 24
Oggi h: 15:20 foschia Foschia 0 0 100 1020 5 O/SO 27.8
Oggi h: 14:50 foschia Foschia 0 0 100 1020 6 O/SO 25.9
Oggi h: 14:20 foschia Foschia 0 0 100 1021 6 O/SO 29.6
Oggi h: 13:50 foschia Foschia 0 0 100 1021 5 O/SO 29.6
Oggi h: 13:20 foschia Foschia 0 0 100 1021 3 O 22.2
Oggi h: 12:50 foschia Foschia 0 0 100 1021 8 O 22.2
Oggi h: 12:20 foschia Foschia -0 -0 100 1021 7 O 20.3
Oggi h: 11:50 foschia Foschia -0 -0 100 1022 8 O/SO 22.2
Oggi h: 11:20 coperto Coperto -0 -0 100 1022 10 O/SO 18.5
Oggi h: 10:50 foschia Foschia -0 -1 92 1022 10 O/SO 25.9
Oggi h: 10:20 foschia Foschia -1 -1 100 1022 10 O/SO 22.2
Oggi h: 09:50 foschia Foschia -1 -1 100 1022 10 O/SO 20.3
Oggi h: 09:20 poco_nuvoloso Poco Nuvoloso -1 -1 100 1022 10 O/SO 20.3
Oggi h: 08:50 sereno Sereno -1 -1 100 1022 10 O/SO 18.5
Oggi h: 08:20 sereno Sereno -1 -1 100 1022 10 O/SO 18.5
Oggi h: 07:50 sereno Sereno -1 -1 100 1022 10 O/SO 20.3
Oggi h: 07:20 sereno Sereno -1 -1 100 1022 10 O/SO 18.5
Oggi h: 06:50 sereno Sereno -1 -1 100 1022 10 O/SO 14.8
Oggi h: 06:20 sereno Sereno -1 -1 100 1022 10 O/SO 13
Oggi h: 05:50 sereno Sereno -2 -2 100 1023 10 S/SO 9.3
Oggi h: 05:20 nebbia Banco di Nebbia -3 -3 100 1023 9 S/SO 9.3
Oggi h: 04:50 nebbia Banco di Nebbia -2 -2 100 1023 8 SO 11.1
Oggi h: 04:20 nebbia Banco di Nebbia -2 -2 100 1024 9 SO 9.3
Oggi h: 03:50 nebbia Banco di Nebbia -2 -2 100 1024 7 O/SO 9.3
Oggi h: 03:20 nebbia Banco di Nebbia -1 -1 100 1024 5 O/SO 13
Oggi h: 02:50 foschia Foschia -2 -2 100 1024 10 SO 9.3
Oggi h: 02:20 foschia Foschia -1 -1 100 1024 10 SO 7.4
Oggi h: 01:50 sereno Sereno -2 -2 100 1025 10 O/SO 11.1
Oggi h: 01:20 sereno Sereno -2 -2 100 1025 10 O 14.8
Oggi h: 00:50 sereno Sereno -3 -3 100 1025 10 O/SO 9.3
Oggi h: 00:20 sereno Sereno -1 -1 100 1025 10 SO 11.1
Ieri h: 23:50 sereno Sereno -2 -2 100 1025 10 SO 7.4
Ieri h: 23:20 sereno Sereno -1 -1 100 1026 10 SO 7.4
Ieri h: 22:50 sereno Sereno -2 -2 100 1026 10 SO 9.3
Ieri h: 22:20 sereno Sereno -1 -1 100 1026 10 SO 7.4
Ieri h: 21:50 sereno Sereno -1 -1 100 1026 10 O/SO 9.3
Ieri h: 21:20 sereno Sereno -1 -1 100 1026 10 O/SO 9.3
Ieri h: 20:50 sereno Sereno -1 -1 100 1026 10 SO 9.3
Ieri h: 20:20 sereno Sereno -1 -1 100 1026 10 N 5.5
Ieri h: 19:50 sereno Sereno -0 -0 100 1026 10 N 5.5
Ieri h: 19:20 sereno Sereno -1 -1 100 1026 10 SO 9.3
Ieri h: 18:50 sereno Sereno -1 -1 100 1026 10 O/SO 7.4
Ieri h: 18:20 sereno Sereno 0 -0 100 1026 10 N 5.5
Ieri h: 17:50 sereno Sereno -0 -0 100 1026 10 N 5.5
Ieri h: 17:20 sereno Sereno 0 -0 100 1026 10 N 5.5
Ieri h: 16:50 sereno Sereno 1 0 93 1026 10 N 5.5